Location: Brno
(49.2000°N, 16.6330°E)
Time: 19:06:46
(UTC+02:00)

Iridium 2 - Visible Passes

Search period start: 26 April 2018 00:00
Search period end: 06 May 2018 00:00
Orbit: 507 x 521 km, 85.5° (Epoch: 26 April)

Date Brightness Start Highest point End Pass type
(mag) Time Alt. Az. Time Alt. Az. Time Alt. Az.
26 Apr 5.2 00:38:09 34° NNE 00:38:09 34° NNE 00:40:25 10° N visible
26 Apr 6.3 02:13:07 11° WNW 02:13:07 11° WNW 02:13:55 10° NW visible
27 Apr 5.2 00:22:34 32° NNE 00:22:34 32° NNE 00:24:51 10° NNE visible
27 Apr 6.2 01:57:31 14° WNW 01:57:31 14° WNW 01:59:00 10° NW visible
28 Apr 5.3 00:06:58 29° NE 00:06:58 29° NE 00:09:13 10° NNE visible
28 Apr 6.0 01:41:56 17° WNW 01:41:56 17° WNW 01:43:51 10° NNW visible
28 Apr 5.4 23:51:22 25° NE 23:51:22 25° NE 23:53:33 10° NNE visible
29 Apr 5.7 01:26:20 21° WNW 01:26:20 21° WNW 01:28:35 10° NNW visible
29 Apr 5.5 23:35:45 22° ENE 23:35:45 22° ENE 23:37:51 10° NNE visible
30 Apr 5.5 01:10:43 25° NW 01:10:43 25° NW 01:13:15 10° NNW visible
30 Apr 5.7 23:20:08 19° ENE 23:20:08 19° ENE 23:22:05 10° NE visible
01 May 5.2 00:55:06 31° NW 00:55:06 31° NW 00:57:51 10° NNW visible
01 May 5.8 23:04:31 16° ENE 23:04:31 16° ENE 23:06:13 10° NE visible
02 May 4.9 00:39:28 38° NW 00:39:28 38° NW 00:42:26 10° N visible
02 May 6.0 22:48:52 13° ENE 22:48:52 13° ENE 22:50:13 10° NE visible
03 May 4.5 00:23:50 48° NW 00:23:50 48° NW 00:26:58 10° N visible
03 May 6.1 22:33:13 11° ENE 22:33:13 11° ENE 22:33:45 10° ENE visible
04 May 4.1 00:08:11 59° NNW 00:08:11 59° NNW 00:11:28 10° N visible
04 May 3.8 23:52:31 70° N 23:52:31 70° N 23:55:56 10° N visible
05 May 3.8 23:36:51 67° ENE 23:36:51 67° ENE 23:40:22 10° N visible
